Regional Weather Roundup
Issued by NWS Sterling, VA

Home | Current Version | Previous Version | Graphics & Text | Print | Product List | Glossary On
Versions: 1 2 3 4 5 6 7 8 9 10 11 12 13 14 15 16 17 18 19 20 21 22 23 24 25 26 27
000
ASUS41 KLWX 270310
RWRLWX

REGIONAL WEATHER ROUNDUP
NATIONAL WEATHER SERVICE BALTIMORE MD/WASHINGTON DC
1100 PM EDT SUN MAR 26 2017

Note: "FAIR" indicates few or no clouds below 12,000 feet
with no significant weather and/or obstructions to visibility.
 TC=TEMPERATURE CELSIUS

 * =Non NWS site. Station does not report precipitation (e.g. rain,
    snow, etc.), thunder, or fog.

DCZ001-MDZ009-015-VAZ040>042-051-053>054-270400-
WASHINGTON METRO

CITY           SKY/WX    TMP DP  RH WIND       PRES   REMARKS
WASHINGTON NAT DRIZZLE   47  47 100 E7        30.24F FOG
DULLES         LGT RAIN  46  45  96 E8        30.22F VSB 1
ANDREWS AFB    CLOUDY    45  44  97 E8        30.21F FOG
FT BELVOIR     CLOUDY    47  45  94 CALM      30.23S
QUANTICO       LGT RAIN  48  48 100 NE6       30.24S FOG
COLLEGE PARK*  CLOUDY    45  43  93 E5        30.23F
LEESBURG*      LGT RAIN  46  46 100 SE9       30.22F
MANASSAS*      LGT RAIN  47  46  97 E6        30.23F FOG

$$

MDZ006>007-011-014-270400-
BALTIMORE METRO

CITY           SKY/WX    TMP DP  RH WIND       PRES   REMARKS
BWI AIRPORT    CLOUDY    44  44 100 E9        30.24F FOG
MD SCIENCE CTR   N/A     46  43  89 MISG      30.25F
MARTIN STATE   CLOUDY    45  45 100 NE7       30.27F FOG
ANNAPOLIS      CLOUDY    46  45  96 E9        30.24F FOG
FORT MEADE*    CLOUDY    43  43 100 E6        30.27S

$$

MDZ012-015-019>023-270400-
MARYLAND EASTERN SHORE

CITY           SKY/WX    TMP DP  RH WIND       PRES   REMARKS
OCEAN CITY     FOG       46  44  93 E5        30.24F VSB 1/2
SALISBURY      FOG       46  46 100 E9        30.22F VSB 1/2
BAY BRIDGE AP* CLOUDY    45  45 100 E7        30.24F FOG
CAMBRIDGE*     CLOUDY    46  45  93 NE3       30.24S FOG
EASTON*        FOG       46  44  94 E5        30.29R VSB 1

$$

MDZ017>025-270400-
SOUTHERN MARYLAND

CITY           SKY/WX    TMP DP  RH WIND       PRES   REMARKS
PATUXENT RIVER FOG       47  47 100 E7        30.22S VSB 1/2
ST INIGOES     FOG       48  48 100 E6        30.22R VSB 1/2
LEONARDTOWN*   CLOUDY    45  45 100 E3        30.23F VSB 1/2

$$

MDZ003>005-270400-
NORTH CENTRAL MARYLAND

CITY           SKY/WX    TMP DP  RH WIND       PRES   REMARKS
FREDERICK*     RAIN      46  46 100 E3        30.25F
HAGERSTOWN APT CLOUDY    46  45  96 E3        30.20F FOG
WESTMINSTER*   CLOUDY    45  45 100 SE8       30.21F FOG

$$

MDZ501>502-270400-
WESTERN MARYLAND

CITY           SKY/WX    TMP DP  RH WIND       PRES   REMARKS
OAKLAND*       FOG       41  41 100 SE13      30.08F VSB 1/4
CUMBERLAND*    CLOUDY    46  46 100 MISG      30.20F

$$

VAZ025>031-270400-
SHENANDOAH VALLEY

CITY           SKY/WX    TMP DP  RH WIND       PRES   REMARKS
WINCHESTER*    CLOUDY    45  45 100 E5        30.18F
FRONT ROYAL*   CLOUDY    48  46  93 CALM      30.16S
LURAY*         MOCLDY    52  52 100 CALM      30.15F
NEW MARKET*    CLOUDY    47  46  94 N3        30.15F
STAUNTON*      DRIZZLE   51  49  93 CALM      30.17S
WAYNESBORO*    CLOUDY    48  48 100 E10       30.15F

$$

WVZ021-048>050-054>055-270400-
EASTERN WEST VIRGINIA PANHANDLE

CITY           SKY/WX    TMP DP  RH WIND       PRES   REMARKS
MARTINSBURG    CLOUDY    46  44  93 E6        30.19F FOG
PETERSBURG*    RAIN      49  47  94 CALM      30.15F

$$

VAZ036>039-050-270400-
CENTRAL FOOTHILLS

CITY           SKY/WX    TMP DP  RH WIND       PRES   REMARKS
CHARLOTTESVILL CLOUDY    51  49  92 N6        30.19F
CULPEPER*      DRIZZLE   49  49  99 E3        30.21F
ORANGE*        DRIZZLE   48  46  93 N3        30.22S
GORDONSVILLE*  CLOUDY    49  49 100 NE3       30.19F FOG
WARRENTON*     RAIN      49  46  89 E5        30.21F

$$

VAZ055>057-270400-
NORTH AND CENTRAL PIEDMONT

CITY           SKY/WX    TMP DP  RH WIND       PRES   REMARKS
FREDERICKSBRG* LGT RAIN  49  49 100 NE5       30.22S
STAFFORD*      LGT RAIN  47  47 100 E3        30.27R

$$

NCZ024-NYZ072-PAZ021-071-VAZ022-071-270400-
OTHER REGIONAL OBSERVATIONS

CITY           SKY/WX    TMP DP  RH WIND       PRES   REMARKS
NEW YORK CITY  CLOUDY    39  38  96 E6        30.36F FOG
PHILADELPHIA   CLOUDY    41  39  93 NE7       30.30F FOG
PITTSBURGH     LGT RAIN  54  54 100 SE10      29.99F
ROANOKE        LGT RAIN  58  57  97 SE8       30.16S
RICHMOND       MOCLDY    55  52  89 E5        30.18F
RALEIGH        CLOUDY    68  53  58 S12       30.17R

$$

ANZ530>537-270400-
MARINE OBSERVATIONS

STATION/POSITION TIME  TEMP    WIND        PRES
                       AIR SEA DIR/SP/G
                 (UTC) (F)     (DEG/KT/KT) (MB)
THOMAS PT LIGHT  0300   44 45   90/  9/  9   N/A
BALT KEY BRIDGE  0248   44      80/  9/ 11 1024.5F
COVE POINT       0248   45     100/  8/  8 1024.4R
LEWISETTA        0248   49 51  120/ 12/ 14 1023.0R
SOLOMONS ISLAND  0248   46 47   70/  8/  9   N/A
PINEY POINT      0248          120/  8/  9   N/A

$$





USA.gov is the U.S. government's official web portal to all federal, state and local government web resources and services.